Flag for United Arab Emirates Weather past 2 weeks in Umm al-Quwain, Umm al-Quwain, United Arab Emirates

Now
73 °F

Clear.


Feels Like: 77 °F
Forecast: 69 / 79 °F
Wind: 5 mph from North

Location: Sharjah International Airport

Current Time: Jan 30, 2015 at 8:01:28 PM

Latest Report: Jan 30, 2015 at 7:00 PM


Visibility: 10 mi

Pressure: 30.07 "Hg

Humidity: 50%

Dew point: 54 °F

Location of Umm al-QuwainLocation

Historic Weather in Umm al-Quwain — Graph

°F

Umm al-Quwain temperature yesterday

Maximum temperature yesterday: 82 °F (at 1:00 PM)
Minimum temperature yesterday: 54 °F (at 7:00 AM)
Average temperature yesterday: 68 °F

Past Weeks' High & Low Weather Summary

 TemperatureHumidityPressure
High86 °F (Jan 30, 1:00 PM)88% (Jan 18, 5:00 AM)30.24 "Hg (Jan 18, 5:00 AM)
Low52 °F (Jan 21, 4:00 AM)18% (Jan 30, 1:00 PM)29.59 "Hg (Jan 23, 10:00 AM)
Average65 °F60%30.10 "Hg
* Reported Jan 15 7:00 PM — Jan 30 7:00 PM, Umm al-Quwain, Weather by CustomWeather, © 2014

Note: Actual official high and low records may vary slightly from our data, if they occured in-between our weather recording intervals... More about our weather records

Advertising

Umm al-Quwain weather history for previous 24 hours

 ConditionsComfort  
Time TempWeatherWind HumidityBarometerVisibility
7:00 PM
Jan 30
73 °FClear.5 mph50%30.07 "Hg10 mi
6:00 PM77 °FClear.7 mph42%30.07 "Hg10 mi
5:00 PM79 °FSunny.9 mph39%30.07 "Hg10 mi
4:00 PM81 °FSunny.12 mph37%30.07 "Hg10 mi
3:00 PM82 °FSunny.10 mph30%30.07 "Hg10 mi
2:00 PM86 °FSunny.7 mph24%30.07 "Hg10 mi
1:00 PM86 °FSunny.8 mph18%30.09 "Hg10 mi
12:00 PM84 °FSunny.6 mph19%30.12 "Hg10 mi
11:00 AM81 °FSunny.6 mph26%30.15 "Hg10 mi
10:00 AM75 °FSunny.3 mph41%30.15 "Hg10 mi
9:00 AM66 °FSunny.5 mph64%30.15 "Hg10 mi
8:00 AM57 °FSunny.6 mph77%30.12 "Hg10 mi
7:00 AM55 °FClear.6 mph77%30.09 "Hg10 mi
6:00 AM55 °FClear.5 mph72%30.07 "Hg10 mi
5:00 AM55 °FClear.5 mph72%30.07 "Hg10 mi
4:00 AM57 °FClear.7 mph67%30.04 "Hg10 mi
3:00 AM59 °FClear.7 mph68%30.04 "Hg5 mi
2:00 AM59 °FClear.6 mph72%30.07 "Hg5 mi
1:00 AM61 °FClear.5 mph72%30.07 "Hg5 mi
12:00 AM63 °FClear.7 mph73%30.09 "Hg5 mi
11:00 PM
Jan 29
61 °FClear.6 mph77%30.09 "Hg10 mi
10:00 PM64 °FClear.6 mph73%30.09 "Hg10 mi
9:00 PM66 °FClear.3 mph68%30.09 "Hg10 mi
8:00 PM68 °FClear.3 mph60%30.07 "Hg10 mi
Weather by CustomWeather, © 2014

See weather overviewHow to use our weather pages